Date,TemperatureHighF,TemperatureAvgF,TemperatureLowF,DewpointHighF,DewpointAvgF,DewpointLowF,HumidityHigh,HumidityAvg,HumidityLow,PressureMaxIn,PressureMinIn,WindSpeedMaxMPH,WindSpeedAvgMPH,GustSpeedMaxMPH,PrecipitationSumIn
2013-3-1,35.1,34.6,34.2,29.6,28.8,25.6,81,79,68,29.38,29.26,0,0,2,0.00
2013-3-3,34.9,24.7,23.5,29.6,5.6,2.4,81,44,37,29.44,29.38,6,2,6,0.00
2013-3-4,34.9,29.4,25.0,7.6,3.7,-0.1,46,33,22,29.59,29.44,13,4,13,0.00
2013-3-5,46.8,32.3,25.7,10.9,7.2,-0.7,51,35,18,29.68,29.56,12,3,12,0.00
2013-3-6,43.9,39.0,24.4,16.3,13.4,9.4,52,35,28,29.68,29.56,13,7,17,0.00
2013-3-7,45.9,37.9,32.0,15.0,8.2,1.7,41,29,21,29.83,29.68,12,4,12,0.00
2013-3-8,49.3,37.4,27.5,26.2,7.7,-1.7,75,32,16,29.94,29.80,17,4,17,0.00
2013-3-9,65.8,44.2,27.5,26.4,14.5,4.0,69,34,13,29.97,29.85,6,3,6,0.00
2013-3-10,54.9,48.8,35.6,19.3,11.5,6.5,51,22,18,29.85,29.59,20,14,20,0.00
2013-3-11,51.6,48.6,44.8,26.0,16.4,10.2,37,27,21,29.65,29.32,30,17,30,0.00
2013-3-12,51.4,41.0,37.0,40.4,32.8,20.3,80,73,37,29.50,29.32,17,2,17,0.00
2013-3-13,43.0,35.5,27.3,22.8,6.7,-3.3,58,30,20,29.50,29.41,20,6,20,0.00
2013-3-14,43.3,32.0,21.7,5.3,-1.2,-7.4,46,25,18,29.62,29.50,14,6,14,0.00
2013-3-15,42.3,36.1,27.3,16.3,10.7,-7.4,41,35,21,29.59,29.29,16,9,19,0.00
2013-3-16,35.1,28.4,19.4,5.4,0.1,-2.8,39,29,22,29.56,29.41,11,4,11,0.00
2013-3-17,36.7,28.2,18.1,12.8,-0.7,-7.2,55,29,19,29.91,29.56,13,5,13,0.00
2013-3-18,36.7,32.3,23.5,26.8,11.6,-6.9,79,48,19,29.91,29.41,33,14,33,0.00
2013-3-19,47.5,36.3,29.5,33.4,15.1,0.8,79,44,24,29.41,29.23,27,7,27,0.00
2013-3-20,40.6,32.7,27.0,16.8,1.6,-7.4,49,27,19,29.41,29.35,17,6,17,0.00
2013-3-21,39.6,31.3,25.2,16.9,1.6,-5.7,59,29,18,29.41,29.29,13,5,13,0.00
2013-3-22,35.2,32.7,29.3,18.5,12.2,7.8,59,43,33,29.47,29.29,15,6,15,0.00
2013-3-23,40.6,35.6,30.2,13.0,5.7,1.1,42,29,21,29.56,29.47,13,4,13,0.00
2013-3-24,47.8,37.9,30.0,11.5,4.8,-1.7,41,26,17,29.56,29.32,15,5,15,0.00
2013-3-25,45.0,39.5,32.7,14.8,10.3,4.5,43,31,20,29.32,29.15,13,5,13,0.00
2013-3-26,36.0,31.9,0.0,21.3,13.3,0.0,56,44,32,29.50,29.26,6,1,6,0.00
2013-3-27,49.1,39.6,35.6,27.0,19.8,10.3,62,47,21,29.62,29.50,12,4,12,0.00
2013-3-28,50.4,42.8,36.0,30.1,18.6,12.6,71,39,27,29.77,29.62,11,3,11,0.00
2013-3-29,51.8,43.4,33.4,23.6,14.4,7.4,54,32,19,29.77,29.68,12,4,12,0.00
2013-3-30,63.9,46.1,30.2,31.7,12.8,2.5,83,31,13,29.77,29.65,10,4,10,0.00
2013-3-31,42.1,35.1,32.7,11.3,9.3,8.7,36,34,28,29.65,29.50,12,5,12,0.00